Flag for Bahrain Weather past 2 weeks in Riffa, Bahrain

Now
102 °F

Sunny.


Feels Like: 129 °F
Forecast: 88 / 106 °F
Wind: 7 mph from Northeast

Location: Bahrain International Airport

Current Time: Aug 31, 2015 at 2:11:26 PM

Latest Report: Aug 31, 2015 at 1:00 PM


Visibility: 4 mi

Pressure: 29.62 "Hg

Humidity: 54%

Dew point: 82 °F

Historic Weather in Riffa — Graph

°F

Riffa temperature yesterday

Maximum temperature yesterday: 106 °F (at 12:00 PM)
Minimum temperature yesterday: 91 °F (at 11:00 PM)
Average temperature yesterday: 96 °F

Past Weeks' High & Low Weather Summary

 TemperatureHumidityPressure
High111 °F (Aug 19, 3:00 PM)84% (Aug 24, 5:00 AM)29.65 "Hg (Aug 24, 5:00 AM)
Low90 °F (Aug 27, 3:30 AM)12% (Aug 19, 3:00 PM)29.47 "Hg (Aug 24, 2:00 AM)
Average98 °F60%29.55 "Hg
* Reported Aug 16 12:00 Noon — Aug 31 12:00 Noon, Riffa, Weather by CustomWeather, © 2015

Note: Actual official high and low records may vary slightly from our data, if they occured in-between our weather recording intervals... More about our weather records

Advertising

Riffa weather history for previous 24 hours

 ConditionsComfort  
Time TempWeatherWind HumidityBarometerVisibility
12:00 PM
Mon, Aug 31
102 °FSunny.9 mph57%29.62 "Hg4 mi
11:00 AM100 °FSunny.10 mph60%29.62 "Hg4 mi
10:00 AM102 °FSunny.2 mph45%29.65 "Hg4 mi
9:00 AM99 °FSunny.5 mph57%29.65 "Hg4 mi
8:00 AM99 °FSunny.2 mph57%29.65 "Hg4 mi
7:00 AM93 °FSunny.3 mph67%29.62 "Hg4 mi
6:00 AM91 °FSunny.2 mph71%29.62 "Hg4 mi
5:00 AM91 °FClear.2 mph75%29.59 "Hg3 mi
4:00 AM91 °FClear.3 mph75%29.56 "Hg3 mi
3:00 AM91 °FClear.3 mph80%29.56 "Hg3 mi
2:00 AM91 °FClear.2 mph84%29.56 "Hg3 mi
12:00 AM91 °FClear.2 mph84%29.59 "Hg3 mi
11:00 PM
Sun, Aug 30
91 °FClear.2 mph80%29.59 "Hg4 mi
10:00 PM93 °FClear.2 mph75%29.59 "Hg4 mi
9:00 PM93 °FClear.5 mph75%29.59 "Hg4 mi
8:00 PM93 °FClear.5 mph75%29.59 "Hg4 mi
7:00 PM95 °FClear.7 mph71%29.56 "Hg4 mi
6:00 PM95 °FClear.8 mph71%29.56 "Hg4 mi
5:00 PM97 °FSunny.9 mph67%29.56 "Hg3 mi
4:00 PM100 °FSunny.12 mph53%29.56 "Hg4 mi
3:00 PM102 °FSunny.12 mph51%29.56 "Hg5 mi
2:00 PM102 °FSunny.10 mph45%29.56 "Hg5 mi
Weather by CustomWeather, © 2015

See weather overviewHow to use our weather pages